Location: Gokavaram
(16.9752°N, 81.0696°E)
Time: 21:22:47
(UTC+00:00)

Sich 1 Rocket - Pass Details

Date: 15 May 2026
Orbit: 612 x 644 km, 82.5° (Epoch: 10 June)

Event Time Altitude Azimuth Distance (km) Brightness Sun altitude
Rises 14:14:35 0° 194° (SSW) 2,866 6.8 -17.2°
Reaches altitude 10° 14:16:51 10° 199° (SSW) 1,961 6.0 -17.7°
Maximum altitude 14:21:03 51° 275° (W) 771 4.4 -18.6°
Drops below altitude 10° 14:25:17 10° 352° (N) 1,963 6.6 -19.5°
Sets 14:27:33 0° 357° (N) 2,870 7.4 -20.0°
